Flag for U.S.A. Weather past 2 weeks in Ontario, Oregon, U.S.A.

Now
67 °F

Sunny.


Feels Like: 67 °F
Forecast: 54 / 85 °F
Wind: No wind

Location: Ontario Municipal Airport

Current Time: Jul 24, 2014 at 10:22:41 PM

Latest Report: Jul 24, 2014 at 9:53 PM


Visibility: 10 mi

Pressure: 30.03 "Hg

Humidity: 37%

Dew point: 40 °F

Location of OntarioLocation

Historic Weather in Ontario — Graph

°F

Ontario temperature yesterday

Maximum temperature yesterday: 92 °F (at 5:53 PM)
Minimum temperature yesterday: 61 °F (at 6:53 AM)
Average temperature yesterday: 77 °F

Past Weeks' High & Low Weather Summary

 TemperatureHumidityPressure
High105 °F (Jul 14, 3:53 PM)81% (Jul 23, 3:53 AM)30.20 "Hg (Jul 23, 3:53 AM)
Low57 °F (Jul 24, 6:53 AM)9% (Jul 15, 5:53 PM)29.61 "Hg (Jul 20, 8:53 PM)
Average82 °F32%29.88 "Hg
* Reported Jul 9 8:53 PM — Jul 24 8:53 PM, Ontario, Weather by CustomWeather, © 2014

Note: Actual official high and low records may vary slightly from our data, if they occured in-between our weather recording intervals... More about our weather records

Advertising

Ontario weather history for previous 24 hours

 ConditionsComfort  
Time TempWeatherWind HumidityBarometerVisibility
8:53 PM
Jul 24
72 °FSunny.5 mph37%30.02 "Hg10 mi
7:53 PM75 °FSunny.3 mph32%30.03 "Hg10 mi
6:53 PM78 °FSunny.No wind18%30.03 "Hg10 mi
5:53 PM77 °FSunny.6 mph20%30.05 "Hg10 mi
4:53 PM78 °FSunny.6 mph18%30.07 "Hg10 mi
3:53 PM75 °FSunny.6 mph19%30.11 "Hg10 mi
2:53 PM75 °FSunny.6 mph19%30.13 "Hg10 mi
1:53 PM74 °FSunny.9 mph21%30.15 "Hg10 mi
12:53 PM71 °FSunny.8 mph24%30.18 "Hg10 mi
11:53 AM70 °FSunny.12 mph26%30.19 "Hg10 mi
10:53 AM67 °FSunny.10 mph30%30.19 "Hg10 mi
9:53 AM64 °FSunny.8 mph35%30.20 "Hg10 mi
8:53 AM62 °FSunny.16 mph39%30.18 "Hg10 mi
7:53 AM59 °FSunny.10 mph49%30.15 "Hg10 mi
6:53 AM57 °FClear.7 mph55%30.11 "Hg10 mi
5:53 AM59 °FClear.13 mph54%30.08 "Hg10 mi
4:53 AM61 °FClear.16 mph52%30.05 "Hg10 mi
3:53 AM63 °FClear.16 mph48%30.03 "Hg10 mi
2:53 AM63 °FClear.20 mph50%30.01 "Hg10 mi
1:53 AM65 °FClear.20 mph51%29.98 "Hg10 mi
12:53 AM67 °FClear.23 mph51%29.95 "Hg10 mi
11:53 PM
Jul 23
70 °FClear.25 mph46%29.90 "Hg10 mi
10:53 PM74 °FClear.18 mph40%29.86 "Hg10 mi
Weather by CustomWeather, © 2014

See weather overviewHow to use our weather pages